sat.trackr.live / text

‹ back to catalog

STARLINK-32256

NORAD 60362 · 2024-138H

PAYLOAD ACTIVE UNKNOWN

§ Identity

Operator
Country
US
Launch date
2024-08-04
Launch site
AFWTR
Launch vehicle
Mass (kg)
RCS (m²)

Purposes: comms

External: N2YO · Heavens-Above · Gunter

§ Orbital elements

Epoch: 2026-05-25T04:14:26.238048Z

Period
94.11 min
Inclination
53.1613°
Eccentricity
0.0001450
Mean motion
15.30190562 rev/d
Perigee alt
474.2 km
Apogee alt
476.2 km
Semi-major
6,853.4 km
B*
6.1677e-5
RAAN
314.6378°
Arg perigee
80.4626°
Mean anomaly
279.6539°
Rev number
10,232

§ Raw data

STARLINK-322561 60362U 24138H   26145.17669257  .00001467  00000+0  61677-4 0  99942 60362  53.1613 314.6378 0001450  80.4626 279.6539 15.30190562102327

JSON: /api/v1/satellites/60362 · /tle

For live sub-satellite position, see the globe view (requires WebGL).

§ Visibility from observer

Set your observer location to see the next 7 days of passes ≥ 10°. The values pass through the URL so the page stays shareable.

No JS? Fill the form by hand. The geolocation button needs JavaScript.